Location: Limoges
(45.8354°N, 1.2645°E)
Time: 20:17:51
(UTC+02:00)

Courier 1B Rocket - Pass Details

Date: 22 February 2024
Orbit: 920 x 1201 km, 28.2° (Epoch: 20 April)

Event Time Altitude Azimuth Distance (km) Brightness Sun altitude
Rises 06:47:24 0° 236° (SW) 3,551 - -11.1°
Exits shadow 06:48:32 - 231° (SW) 3,235 7.3 -10.9°
Reaches altitude 10° 06:51:06 10° 214° (SW) 2,627 7.0 -10.4°
Maximum altitude 06:54:38 16° 180° (S) 2,277 7.0 -9.8°
Drops below altitude 10° 06:58:15 10° 145° (SE) 2,697 7.9 -9.2°
Sets 07:02:08 0° 125° (SE) 3,698 9.2 -8.5°
